• In Belgium
  • List of Countries
  • For 7 days
  • Water Temperature
  • Satellite Maps
  • Weather Map
  • Weather Widgets
  • user-avatar
    Login

    Hourly Weather Osmancık

    Today, 26 April, Thursday

    Time Temperature Precipitation Wind Pressure Humidity
    00:00 +18°C° 0 mm 1 mps 722 mmHg 60%
    01:00 +16°C° 0 mm 1 mps 722 mmHg 59%
    02:00 +15°C° 0 mm 0 mps 722 mmHg 56%
    03:00 +15°C° 0 mm 0 mps 722 mmHg 56%
    04:00 +15°C° 0 mm 0 mps 722 mmHg 55%
    05:00 +14°C° 0 mm 0 mps 722 mmHg 55%
    06:00 +17°C° 0 mm 0 mps 722 mmHg 49%
    07:00 +21°C° 0 mm 1 mps 722 mmHg 42%
    08:00 +23°C° 0 mm 1 mps 722 mmHg 36%
    09:00 +25°C° 0 mm 1 mps 722 mmHg 34%
    10:00 +26°C° 0 mm 1 mps 722 mmHg 32%
    11:00 +27°C° 0 mm 1 mps 722 mmHg 29%
    12:00 +28°C° 0 mm 2 mps 722 mmHg 29%
    13:00 +28°C° 0 mm 2 mps 721 mmHg 29%
    14:00 +28°C° 0 mm 2 mps 721 mmHg 28%
    15:00 +28°C° 0 mm 2 mps 721 mmHg 31%
    16:00 +27°C° 0 mm 3 mps 721 mmHg 34%
    17:00 +26°C° 0 mm 3 mps 720 mmHg 36%
    18:00 +24°C° 0 mm 2 mps 721 mmHg 42%
    19:00 +21°C° 0 mm 2 mps 721 mmHg 47%
    20:00 +19°C° 0 mm 2 mps 721 mmHg 52%
    21:00 +20°C° 0 mm 1 mps 721 mmHg 52%
    22:00 +19°C° 0 mm 1 mps 720 mmHg 51%
    23:00 +18°C° 0 mm 1 mps 720 mmHg 51%

    Tomorrow, 27 April, Friday

    Time Temperature Precipitation Wind Pressure Humidity
    00:00 +18°C° 0 mm 1 mps 720 mmHg 49%
    01:00 +16°C° 0 mm 1 mps 720 mmHg 47%
    02:00 +16°C° 0 mm 1 mps 720 mmHg 46%
    03:00 +16°C° 0 mm 1 mps 720 mmHg 46%
    04:00 +16°C° 0 mm 1 mps 720 mmHg 45%
    05:00 +15°C° 0 mm 1 mps 720 mmHg 45%
    06:00 +19°C° 0 mm 1 mps 720 mmHg 41%
    07:00 +20°C° 0 mm 0 mps 720 mmHg 36%
    08:00 +22°C° 0 mm 0 mps 721 mmHg 31%
    09:00 +26°C° 0 mm 1 mps 721 mmHg 29%
    10:00 +27°C° 0 mm 1 mps 720 mmHg 26%
    11:00 +29°C° 0 mm 2 mps 720 mmHg 24%
    12:00 +29°C° 0 mm 2 mps 720 mmHg 25%
    13:00 +29°C° 0 mm 3 mps 720 mmHg 25%
    14:00 +30°C° 0 mm 3 mps 720 mmHg 26%
    15:00 +28°C° 0 mm 3 mps 720 mmHg 30%
    16:00 +27°C° 0 mm 4 mps 720 mmHg 35%
    17:00 +26°C° 0 mm 4 mps 720 mmHg 40%
    18:00 +24°C° 0 mm 3 mps 721 mmHg 46%
    19:00 +21°C° 0 mm 2 mps 721 mmHg 53%
    20:00 +19°C° 0 mm 2 mps 722 mmHg 59%
    21:00 +18°C° 0 mm 2 mps 722 mmHg 62%
    22:00 +17°C° 0 mm 2 mps 722 mmHg 64%
    23:00 +18°C° 0 mm 1 mps 722 mmHg 66%

    Day after tomorrow, 28 April, Saturday

    Time Temperature Precipitation Wind Pressure Humidity
    00:00 +16°C° 0 mm 1 mps 722 mmHg 67%
    01:00 +16°C° 0 mm 1 mps 722 mmHg 68%
    02:00 +15°C° 0 mm 1 mps 722 mmHg 70%
    03:00 +15°C° 0 mm 1 mps 722 mmHg 70%
    04:00 +14°C° 0 mm 1 mps 722 mmHg 70%
    05:00 +14°C° 0 mm 1 mps 723 mmHg 71%
    06:00 +16°C° 0 mm 1 mps 723 mmHg 62%
    07:00 +18°C° 0 mm 2 mps 723 mmHg 53%
    08:00 +21°C° 0 mm 2 mps 724 mmHg 45%
    09:00 +22°C° 0 mm 3 mps 724 mmHg 40%
    10:00 +24°C° 0 mm 3 mps 724 mmHg 36%
    11:00 +26°C° 0 mm 4 mps 724 mmHg 32%
    12:00 +26°C° 0 mm 4 mps 724 mmHg 32%
    13:00 +26°C° 0 mm 4 mps 724 mmHg 32%
    14:00 +26°C° 0 mm 5 mps 723 mmHg 32%
    15:00 +26°C° 0 mm 5 mps 723 mmHg 35%
    16:00 +25°C° 0 mm 4 mps 723 mmHg 38%
    17:00 +23°C° 0 mm 4 mps 723 mmHg 40%
    18:00 +21°C° 0 mm 3 mps 723 mmHg 48%
    19:00 +18°C° 0 mm 3 mps 724 mmHg 55%
    20:00 +16°C° 0 mm 2 mps 724 mmHg 62%
    21:00 +16°C° 0 mm 2 mps 724 mmHg 64%
    22:00 +15°C° 0 mm 1 mps 724 mmHg 66%
    23:00 +14°C° 0 mm 1 mps 724 mmHg 68%

    29 April, Sunday

    Time Temperature Precipitation Wind Pressure Humidity
    00:00 +14°C° 0 mm 1 mps 724 mmHg 69%
    01:00 +14°C° 0 mm 1 mps 724 mmHg 69%
    02:00 +13°C° 0 mm 1 mps 723 mmHg 70%
    03:00 +13°C° 0 mm 1 mps 723 mmHg 69%
    04:00 +13°C° 0 mm 1 mps 723 mmHg 69%
    05:00 +13°C° 0 mm 1 mps 723 mmHg 68%
    06:00 +15°C° 0 mm 1 mps 723 mmHg 61%
    07:00 +19°C° 0 mm 1 mps 724 mmHg 53%
    08:00 +21°C° 0 mm 1 mps 724 mmHg 45%
    09:00 +23°C° 0 mm 2 mps 724 mmHg 42%
    10:00 +24°C° 0 mm 2 mps 723 mmHg 38%
    11:00 +26°C° 0 mm 2 mps 723 mmHg 35%
    12:00 +27°C° 0 mm 2 mps 723 mmHg 34%
    13:00 +27°C° 0 mm 2 mps 723 mmHg 32%
    14:00 +28°C° 0 mm 3 mps 722 mmHg 31%
    15:00 +27°C° 0 mm 3 mps 722 mmHg 34%
    16:00 +27°C° 0 mm 3 mps 722 mmHg 38%
    17:00 +26°C° 0 mm 3 mps 722 mmHg 42%
    18:00 +24°C° 0 mm 3 mps 722 mmHg 51%
    19:00 +20°C° 0 mm 2 mps 722 mmHg 61%
    20:00 +18°C° 0 mm 2 mps 722 mmHg 70%
    21:00 +18°C° 0 mm 1 mps 722 mmHg 72%
    22:00 +18°C° 0 mm 1 mps 722 mmHg 74%
    23:00 +16°C° 0 mm 1 mps 722 mmHg 77%

    30 April, Monday

    Time Temperature Precipitation Wind Pressure Humidity
    00:00 +16°C° 0 mm 1 mps 721 mmHg 75%
    01:00 +14°C° 0 mm 0 mps 721 mmHg 73%
    02:00 +14°C° 0 mm 0 mps 721 mmHg 71%
    03:00 +14°C° 0 mm 0 mps 721 mmHg 69%
    04:00 +14°C° 0 mm 0 mps 721 mmHg 68%
    05:00 +15°C° 0 mm 1 mps 720 mmHg 66%
    06:00 +18°C° 0 mm 1 mps 721 mmHg 58%
    07:00 +21°C° 0 mm 1 mps 721 mmHg 50%
    08:00 +23°C° 0 mm 1 mps 721 mmHg 42%
    09:00 +25°C° 0 mm 1 mps 721 mmHg 38%
    10:00 +27°C° 0 mm 1 mps 721 mmHg 33%
    11:00 +28°C° 0 mm 1 mps 721 mmHg 29%
    12:00 +29°C° 0 mm 1 mps 720 mmHg 28%
    13:00 +29°C° 0 mm 1 mps 720 mmHg 27%
    14:00 +29°C° 0 mm 2 mps 719 mmHg 26%
    15:00 +29°C° 0 mm 2 mps 719 mmHg 31%
    16:00 +28°C° 0 mm 3 mps 719 mmHg 35%
    17:00 +27°C° 0 mm 3 mps 719 mmHg 40%
    18:00 +25°C° 0 mm 2 mps 720 mmHg 50%
    19:00 +23°C° 0 mm 2 mps 720 mmHg 60%
    20:00 +20°C° 0 mm 2 mps 720 mmHg 70%
    21:00 +20°C° 0 mm 1 mps 720 mmHg 72%
    22:00 +19°C° 0 mm 1 mps 720 mmHg 75%
    23:00 +18°C° 0 mm 1 mps 720 mmHg 78%

    1 May, Tuesday

    Time Temperature Precipitation Wind Pressure Humidity
    00:00 +18°C° 0 mm 1 mps 720 mmHg 78%
    01:00 +16°C° 0 mm 0 mps 719 mmHg 77%
    02:00 +15°C° 0 mm 0 mps 719 mmHg 77%
    03:00 +15°C° 0 mm 0 mps 719 mmHg 77%
    04:00 +15°C° 0 mm 0 mps 720 mmHg 76%
    05:00 +15°C° 0 mm 0 mps 720 mmHg 76%
    06:00 +17°C° 0 mm 0 mps 720 mmHg 66%
    07:00 +22°C° 0 mm 1 mps 720 mmHg 56%
    08:00 +25°C° 0 mm 1 mps 720 mmHg 46%
    09:00 +26°C° 0 mm 1 mps 720 mmHg 42%
    10:00 +28°C° 0 mm 1 mps 720 mmHg 37%
    11:00 +29°C° 0 mm 1 mps 720 mmHg 32%
    12:00 +30°C° 0 mm 1 mps 720 mmHg 31%
    13:00 +30°C° 0 mm 2 mps 720 mmHg 30%
    14:00 +31°C° 0 mm 2 mps 720 mmHg 29%
    15:00 +30°C° 0 mm 2 mps 720 mmHg 33%
    16:00 +29°C° 0 mm 2 mps 720 mmHg 36%
    17:00 +28°C° 0 mm 2 mps 720 mmHg 40%
    18:00 +26°C° 0 mm 2 mps 720 mmHg 50%
    19:00 +24°C° 0 mm 2 mps 720 mmHg 59%
    20:00 +21°C° 0 mm 2 mps 720 mmHg 69%
    21:00 +21°C° 0 mm 1 mps 720 mmHg 71%
    22:00 +20°C° 0 mm 1 mps 720 mmHg 74%
    23:00 +20°C° 0 mm 1 mps 720 mmHg 77%
    Show more